Race Results for
Team Bicycles Plus Classic May Crit
Folsom, CA
(Event Information)
View By:
Criterium on 05/26/2012

Note: Ranking points are NOT upgrade points. An explanation of ranking points can be found here.


Men - Cat3/4 - Master - 35-99

 Place Points NameCity, StateTime USAC #BibTeam
1144.22Jeff DILLON   Folsom, CA00:00.0 9524  17 LeadOut Racing
2148.91Matt TUFTS   Placerville, CA00:00.0 240212  73 leadoutracing.com
3153.60Yutch Liam COWHIE   Fair Oaks, CA00:00.0 261718  12 Team Bicycles Plus/Sierra Neva
4158.29Dennis BAKER   Sacramento, CA00:00.0 255279  80 Sacramento Golden Wheelmen
5162.98Rome MUBARAK (1 - Cat4)   Oakland, CA00:00.0 284394  53 Major Motion Cycling Club
6167.67Greg CHAPLA   Davis, CA00:00.0 282712  Davis Bike Club Race Team
7172.36R Todd MARSHALL   Sacramento, CA00:00.0 43936  50 Davis Bike Club Race Team
8177.05Francisco PADILLA   Vallejo, CA00:00.0 160213  58 taleo racing
9181.74Dave MAMINSKI   Campbell, CA00:00.0 270067  48 SJBC
10186.43Lance LOVEDAY   Auburn, CA00:00.0 305459  46 Victory Velo Racing
11191.12Chris KEMP   West Sacramento, CA00:00.0 18867  40 Team City Sacramento
12195.81Chris DAWSON   Sacramento, CA00:00.0 224241  14 Rio Strada Racing
13200.50Ryan HATA   Sacramento, CA00:00.0 368  36 Kinetic Cycles
14205.19Joshua GRASS   Walnut Creek, CA00:00.0 13916  30 Kovarus/Wells Fargo
15209.88Dan LEE   Petaluma, CA00:00.0 113898  44 Windsor Bicycle Center
16214.57Frank KIM (2 - Cat4)   San Francisco, CA00:00.0 367056  42 Evergreen
17219.26Ronnie LEAVITT   Rocklin, CA00:00.0 319284  43 Victory Velo Racing
18223.95Rick GRAVES   San Rafael, CA00:00.0 100365  31 Taleo Racing
19228.64Lance BARTCZAK   Cool, CA00:00.0 353518  MAJOR MOTION
20233.33Jason CRUSER   Walnutcreek, CA00:00.0 287526  13 Kovarus/Wells Frago Racing
21238.02James WHITNEY (3 - Cat4)   Lincoln, CA00:00.0 51073  75 Fusion Sport
22242.71Brian PANTIGA (4 - Cat4)   Folsom, CA00:00.0 61633  59 Bicycle Planet
23247.40Ronald JOHNSON   Sacramento, CA00:00.0 41718  81 Rio Strada Racing
24252.09Michael BOEHME   Windsor, CA00:00.0 252576  Colavita Racing-Norcal
25256.78Robin MCKINNEY (5 - Cat4)   Lincoln, CA00:00.0 276168  52 Victory Velo Racing
26261.47Ron STOFAN (6 - Cat4)   Folsom00:00.0 368443  68 Team Bicycles Plus/Sierra Neva
27266.16Amin TAMARIZ (7 - Cat4)   Belmont, CA00:00.0 277016  71 Webcor / Alto Velo
28270.85Gus PLATIS   W Sacramento, CA00:00.0 40616  61 Rio Strada Racing
29275.54Jeff SCHARMACHER   Folsom, CA00:00.0 47581  78 Rio Strada Racing
30280.23Givargis BETOSHANA   Ripon, CA00:00.0 55276  FSB
31284.92Paul DIAZ   Cloverdale, CA00:00.0 271260  16 Colavita NorCal
32289.61James ALLEN   Danville, CA00:00.0 287305  Webcor / AltoVelo
33294.30Darron STURGEON   Reno, NV00:00.0 286787  69 Taleo Racing
34298.99Jason ARINNO   Elk Grove, CA00:00.0 260928  Kinetic Cycles
35303.68Jerry SNOW (8 - Cat4)   Sacramento, CA00:00.0 207749  67 Sacramento Golden Wheelmen
36308.37Mike MUNOZ (9 - Cat4)   Cameronpark, CA00:00.0 307140  79 Team Revolutions
37313.06Paul FALVEY   Grass Valley, CA00:00.0 11212  21 Xtreme Outfitters
38317.75Ron FALLON (10 - Cat4)   Folsom, CA00:00.0 333716  20 Victor velo racing
39322.44Greg FALES (11 - Cat4)   Orangevale, CA00:00.0 275788  19 Team Bicycles Plus/Sierra Neva
40327.13Daniel POLLARD (12 - Cat4)   Roseville, CA00:00.0 269166  62 Team Mad Cat
41331.82Laurence HALL   San Francisco, CA00:00.0 362352  33 Berkeley Bicycle Club (BBC)
42336.51Chris MCCRARY (13 - Cat4)   Danville, CA00:00.0 289122  51 Forward Motion Race Club
43341.20Eric CLAUSS (14 - Cat4)   San Francisco, CA00:00.0 198040  10 SquadraSF
44345.89Robert GOSS (15 - Cat4)   Folsom, CA00:00.0 289041  29 Team Bicycles Plus/Sierra Neva
45350.58Jeffrey WEAVER (16 - Cat4)   Sacramento, CA00:00.0 290926  74 Davis Bike Club Race Team
46355.27Spencer KENNER   Davis, CA00:00.0 86651  41 Davis Bike Club Race Team
47359.96Gary MANWILL (17 - Cat4)   Paradise, CA00:00.0 365035  49 chico masters
48364.65Steve ROTHENBERG (18 - Cat4)   Fair Oaks, CA00:00.0 319770  64 Team CCP
49369.34Sean ODOM (19 - Cat4)   Carmichael, CA00:00.0 223061  56 East Sac Bikes
50374.03Don EIPPER (20 - Cat4)   El Dorado Hills, CA00:00.0 248941  18 Team Revolutions
51378.72Kevin KEADY (21 - Cat4)   Folsom, CA00:00.0 330800  39 Folsom Bike/Mercedes Benz
52383.41Kevin FARRAUTO   Livermore, CA00:00.0 662  22 SJBC
53388.10Ian SWINSON   Oakland, CA00:00.0 255539  70 Squadra SF
54392.79Sam HARDT (22 - Cat4)   Reno, NV00:00.0 255354  35 Audi Cycling Team
55397.48Patrick PETERS (23 - Cat4)   Davis, CA00:00.0 303960  60 
56402.17Kevin DENISON (24 - Cat4)   El Dorado Hills, CA00:00.0 303642  15 Team Mad Cat
57406.86Ron FAULK (25 - Cat4)   Placerville, CA00:00.0 254588  23 Body Concepts
58411.55Christopher GROVE (26 - Cat4)   Sacramento, CA00:00.0 332750  32 Body Concepts
59416.24Juan ORTIZ (27 - Cat4)   Castro Valley, CA00:00.0 26838  57 BIANCHI USA
60420.93Frank Lunceford Sr   El Dorado Hills, CA00:00.0 273343  47 Folsom Bike/Mercedes Benz
61425.62Charles HIMES (28 - Cat4)   Santa Rosa, CA00:00.0 16249  37 Windsor Bicycle Center
62430.31Adam ANDELIN (29 - Cat4)   Elk Grove, CA00:00.0 128711  Team Bicycles Plus/Sierra Neva
63435.00John LICATESI   Davis, CA00:00.0 183265  45 Davis Bike Club Race Team
64439.69Renzo BERNALES (30 - Cat4)   Sacramento, CA00:00.0 76203  Team City
65444.38Nabil SAMAAN   Fair Oaks, CA00:00.0 177518  65 kinectics Cycling
66Andrew BARTON   00:00.0  Victory Velo Racing
67453.76Vince HOFFART   Rocklin, CA00:00.0 327712  38 Victory Velo Racing
68458.45John COLLINS   Folsom, CA00:00.0 231774  11 Team Revolutions
69463.14Mark FIORI   Folsom, CA00:00.0 112253  26 Davis Bike Club Race Team
70467.83Bill NICELY   San Ramon, CA00:00.0 215434  54 SJBC
71472.52Jess RAPHAEL   Napa, CA00:00.0 221460  63 HEALTH IS WEALTH RACING TEAM
72477.21Mark SNEED (31 - Cat4)   Oakland, CA00:00.0 290626  66 Major Motion Cycling Club
DNPLance CROW (Cat4)   Clovis, CA00:00.0 361860  77 
DNPClinton HAMILTON (Cat4)   Auburn, CA00:00.0 333284  34 Victory Velo Racing
DNPGreg TSUTAOKA   Oakland, CA00:00.0 296665  72 Berkeley Bicycle Club (BBC)
DNPPatrick O'ROURKE (Cat4)   Fresno, CA00:00.0 132197  55 Steven's Bicycle Racing Team
DNPJerrold GARRARD (Cat4)   Auburn, CA00:00.0 72271  28 Victory Velo
DNPRandy FLOYD (Cat4)   Newcastle, CA00:00.0 90079  27 victory velo racing
DNPRod FERNANDEZ   Dixon, CA00:00.0 265576  25 Davis Bike Club Race Team
DNPStephen FEDERICO (Cat4)   Napa, CA00:00.0 11364  24 Team Roaring Mouse
DNPRaymond WONG (Cat4)   Elk Grove, CA00:00.0 53811  76 Davis bike club race team

Men - Cat1/2/3 - Master - 35-99

 Place Points NameCity, StateTime USAC #BibTeam
199.88Judd VAN SICKLE   Sacramento, CA00:00.0 127052  151 Folsom Bike/Mercedes Benz
2101.51Jan WEISSENBERGER   San Francisco, CA00:00.0 186678  153 GNARLUBE/LANDSHARK racing
3103.14David NASCA (1 - Cat2)   Roseville, CA00:00.0 41192  128 Folsom Bike/Mercedes Benz
4104.77Christopher BAKER   Sacramento, CA00:00.0 47424  189 Morgan Stanley Cycling Team
5106.40Joel ROBERTSON   San Leandro, CA00:00.0 220316  186 Webcor/Alto Velo
6108.03Tom GODFREY (2 - Cat2)   Arlington, VA00:00.0 13480  119 NCVC/UnitedHealthcare
7109.66Jeffrey GALLAND (3 - Cat2)   Paradise, CA00:00.0 127804  118 Lange Twins Winery p/b Great B
8111.29Jason BOYNTON   Yuba City, CA00:00.0 4526  105 Folsom Bike/Mercedes Benz
9112.92John FAIRBANKS (4 - Cat2)   Sacramento, CA00:00.0 83306  183 Morgan Stanley Cycling Team
10114.55Greg TSUTAOKA (1 - Cat3)   Oakland, CA00:00.0 296665  150 Berkeley Bicycle Club (BBC)
11116.18Gregg BETONTE (5 - Cat2)   Truckee, CA00:00.0 255414  161 GNARLUBE/LANDSHARK racing
12117.81John COSTANZA (6 - Cat2)   Sparks, NV00:00.0 287745  113 Velo Reno P/B Tamarack Junctio
13119.44Michael HERNANDEZ   Oakland, CA00:00.0 136641  120 Lange Twins Winery p/b Great B
14121.07Matt CONNOLLY (7 - Cat2)   Sacramento, CA00:00.0 302694  178 LangeTwins Winery p/b Great Ba
15122.70Andre TENTHOREY (8 - Cat2)   Granite Bay, CA00:00.0 76561  171 Sacramento Golden Wheelmen
16124.33David ALBRECHT   Chico, CA00:00.0 47091  101 LangeTwins Winery p/b Great Ba
17125.96Marty CUNNINGHAM (9 - Cat2)   Sacrament Ca00:00.0 8359  167 
18127.59Peter NICHOLSON (10 - Cat2)   Mill Valley00:00.0 219558  130 TRUE Communications
19129.22Michael O'ROURKE (11 - Cat2)   Auburn, CA00:00.0 204496  168 SAFEWAY/GA PRC Group/Bicycles
20130.85Richard STEELE (12 - Cat2)   El Dorado Hills, CA00:00.0 58347  146 Sacramento Golden Wheelmen
21132.48Bubba MELCHER (13 - Cat2)   Reno, NV00:00.0 23961  170 Team Specialized Racing Master
22134.11John ARMER (2 - Cat3)   El Dorado Hills, CA00:00.0 93144  102 Team Bicycles Plus/Sierra Neva
23135.74Alvaro MOSQUERA (3 - Cat3)   Sacramento, CA00:00.0 236809  158 Team Bicycles Plus/Sierra Neva
24137.37Jason BROWN (14 - Cat2)   Lodi, CA00:00.0 53115  106 LangeTwins Winery p/b Great Ba
25139.00Ben ALBRACHT (15 - Cat2)   Monterey, CA00:00.0 210637  100 GNARLUBE/LANDSHARK racing
26140.63Patrick MCCLURG (16 - Cat2)   Citrus Heights, CA00:00.0 48984  176 Folsom Bike/Mercedes Benz
27142.26Morgan MAHANKE (4 - Cat3)   El Dorado Hills, CA00:00.0 226577  126 Team Bicycles Plus/Sierra Neva
28143.89Anders DELLIEN   Redwood City, CA00:00.0 355166  114 Cycles Fanatic
29145.52Chris OTT   San Jose, CA00:00.0 26920  133 HDR Racing p/b Lombardi Sports
30147.15Scott PEIFER (17 - Cat2)   Granite Bay, CA00:00.0 265877  136 Folsom Bike/Mercedes Benz
31148.78Shane CALKINS (5 - Cat3)   Gold River, CA00:00.0 254786  110 Team Bicycles Plus/Sierra Neva
32150.41Robert Pasco   Belmont, CA00:00.0 136970  159 
33152.04David KAUSE (18 - Cat2)   Sacramento, CA00:00.0 175157  124 Quick Step North America
34153.67Scotti FONSECA (19 - Cat2)   Fair Oaks, CA00:00.0 204715  116 Zenn Cycling Team
35155.30Steve THOMSEN (20 - Cat2)   Reno, NV00:00.0 245436  148 LangeTwins Winery p/b Great Ba
36156.93Scott HERRING (21 - Cat2)   Sausalito, CA00:00.0 236346  166 Evergreen Cycling
37158.56Michael JACQUES   Portola Valley, CA00:00.0 72022  191 TEAM CLIF BAR Cycling
38160.19Rich TABUSO (6 - Cat3)   Roseville, CA00:00.0 274439  147 Team Bicycles Plus/Sierra Neva
39161.82Rich MADER (7 - Cat3)   Sacramento, CA00:00.0 222996  125 SacOBGYN Cycllng Team p/b DaVi
40163.45Dylan SEGUIN (22 - Cat2)   Boise, ID00:00.0 44296  143 TEAM CLIF BAR Cycling
41165.08Gordon OLSON (8 - Cat3)   Reno, NV00:00.0 105151  132 Velo Reno p/b Tamarack Junctio
42166.71Darryl MOXLEY (9 - Cat3)   Orangevale, CA00:00.0 86490  157 Folsom Bike/Mercedes Benz
43168.34Stephen SYNHORST   Sacramento, CA00:00.0 234097  172 sgw
44169.97Joseph FOSTER (23 - Cat2)   Alamo, CA00:00.0 286823  117 GNARLUBE / LANDSHARK racing
45171.60Diego GARAVITO   Charlotte, NC00:00.0 172738  180 
46173.23Robert NAPIERALSKI (10 - Cat3)   Springville, CA00:00.0 271499  127 Sacramento Golden Wheelmen
47174.86Patrick BRIGGS   Oakland, CA00:00.0 4838  192 Sierra Pacific Racing p/b Dayk
48176.49Jess RAPHAEL (11 - Cat3)   Napa, CA00:00.0 221460  182 Health is Wealth
49178.12Michael EGAN (24 - Cat2)   West Sacrametno, CA00:00.0 124893  115 Sacramento Golden Wheelmen
50179.75Rodney SPRADLIN (25 - Cat2)   El Dorado Hills, CA00:00.0 122266  145 Team Bicycles Plus/Sierra Neva
51181.38Jonathan LAINE (26 - Cat2)   Truckee, CA00:00.0 256153  162 Team Bicycles Plus/Sierra Neva
52183.01Josh BULLOCK (27 - Cat2)   Sacramento, CA00:00.0 153414  108 Chico Corsa Cycling Club
53184.64Jeff WATSON (28 - Cat2)   Elk Grove, CA00:00.0 293136  152 Team Bicycles Plus/Sierra Neva
54186.27Nicholas CARLEVATO (12 - Cat3)   Carson City, NV00:00.0 64351  111 LangeTwins Winery p/b Great Ba
55187.90Ted TORIBIO (29 - Cat2)   Elk Grove00:00.0 88963  149 Folsom Bike/ Mercedes Benz
56189.53Allen JACKSON (13 - Cat3)   Sonora, CA00:00.0 260263  123 Kovarus/Wells Fargo Racing Tea
57191.16Steve OFFERMAN (14 - Cat3)   Sacramento, CA00:00.0 81992  131 Team Bicycles Plus/Sierra Neva
58192.79Lance NEWEY (15 - Cat3)   Fair Oaks, CA00:00.0 202161  129 Team Bicycles Plus/Sierra Neva
59194.42Kerry STOCKWELL   Folsom, CA00:00.0 34228  165 Rio Strada Racing
60196.05David DEL ROSSO (30 - Cat2)   Dublin, CA00:00.0 187432  163 HDR Racing p/b Lombardi Sports
61197.68Chris PAYNE (16 - Cat3)   Reno, NV00:00.0 27493  135 Velo Reno P/B Tamarack Junctio
62199.31Boris ROZENBERG (17 - Cat3)   Daly City, CA00:00.0 190311  185 
63200.94Charles POCKELL-WILSON (31 - Cat2)   Martinez Ca00:00.0 52696  137 HDR Racing p/b Lombardi Sports
64202.57Rod FERNANDEZ (18 - Cat3)   Dixon, CA00:00.0 265576  187 Davis Bike Club
65204.20Timothy ZSOKA (19 - Cat3)   Folsom, CA00:00.0 239889  156 Team Bicycles Plus/Sierra Neva
66205.83Kyle GLERUM (32 - Cat2)   Burlingame, CA00:00.0 195470  174 SAFEWAY/GA PRC Group/Bicycles
67207.46Eric CINNAMON (33 - Cat2)   Rohnert Park, CA00:00.0 273013  112 Red Peloton
68209.09Jack ARNEY (20 - Cat3)   Lincoln, CA00:00.0 301427  103 Folsom Bike/Mercedes Benz
69210.72Gerald ROBERTS (34 - Cat2)   Sacramento, CA00:00.0 30073  141 Team Bicycles Plus/Sierra Neva
70212.35Gus PLATIS (21 - Cat3)   W Sacramento, CA00:00.0 40616  177 Rio Strada Racing
71213.98Shin UMEDA (35 - Cat2)   Sunnyvale, CA00:00.0 46023  164 Webcor/Alto Velo
72215.61Jason STEELE (36 - Cat2)   Citrus Heights, CA00:00.0 51387  188 Sacramento Golden Wheelmen
73217.24Fred RAMOS (22 - Cat3)   Davis, CA00:00.0 195221  138 SacObgyn Cycling Team p/b DaVi
74218.87Jens HILLEN (37 - Cat2)   Orinda, CA00:00.0 226525  121 GNARLUBE/LANDSHARK Racing
75220.50Richard MAILE (23 - Cat3)   Sacramento, CA00:00.0 153697  184 
76222.13Jonathan EROPKIN   Fresno, CA00:00.0 197844  173 SAFEWAY/GA PRC Group/Bicycles
77223.76Rob CADY (38 - Cat2)   Elk Grove, CA00:00.0 49774  109 SacObgyn Cycling Team p/b DaVi
78225.39Stephen MCCAW (39 - Cat2)   Sacramento, CA00:00.0 62322  181 Team Bicycles Plus/Sierra Neva
79227.02Nick THEOBALD   Burlingame, CA00:00.0 35297  175 SAFEWAY/GA PRC Group/Bicycles
80228.65Chris PAROD (24 - Cat3)   Mather, CA00:00.0 270992  134 Team Bicycles Plus/Sierra Neva
81230.28Trevor WHITE (40 - Cat2)   Oakland, CA00:00.0 503  154 SquadraSF
82231.91Ron READE (41 - Cat2)   Berkeley, CA00:00.0 53377  139 SAFEWAY/GA PRC Group/Bicycles
83233.54Jesse MOORE   Sacramento, CA00:00.0 204739  190 California Giant Berry Farms/S
84235.17Dan BRYANT   Carmichael, CA00:00.0 195929  107 Folsom Bike/Mercedes Benz
85236.80Jason SNOVEL (42 - Cat2)   Sacramento, CA00:00.0 268577  144 Folsom Bike/Mercedes Benz
DNPGivargis BETOSHANA (Cat3)   Ripon, CA00:00.0 55276  104 FSB
DNPMatthew REAM (Cat2)   Verdi, NV00:00.0 211441  140 LangeTwins Winery p/b Great Ba
DNPEric INGRAM (Cat3)   Reno, NV00:00.0 68858  122 Velo Reno
DNPTony REID (Cat3)   Sacramento, CA00:00.0 29458  160 SAFEWAY/GA PRC Group/Bicycles
DNPSteve SHOWLER   Carmichael, CA00:00.0 32554  169 Morgan Stanley /Specialized
DNPRobb WOLF (Cat3)   Reno, NV00:00.0 257141  155 LangeTwins Winery p/b Great Ba
DNPPaul TINDAL (Cat3)   South Lake Tahoe, CA00:00.0 153758  179 LangeTwins Winery p/b Great Ba
DNPNabil SAMAAN (Cat3)   Fair Oaks, CA00:00.0 177518  142 kinectics Cycling

Men - Cat1/2/3 - Master - 45-99

 Place Points NameCity, StateTime USAC #BibTeam
1108.26Gregg BETONTE (1 - Cat2)   Truckee, CA00:00.0 255414  750 GNARLUBE/LANDSHARK racing
2111.81John FAIRBANKS (2 - Cat2)   Sacramento, CA00:00.0 83306  709 Morgan Stanley
3115.36Michael O'ROURKE (3 - Cat2)   Auburn, CA00:00.0 204496  759 SAFEWAY/GA PRC Group/Bicycles
4118.91Andre TENTHOREY (4 - Cat2)   Granite Bay, CA00:00.0 76561  765 Sacramento Golden Wheelmen
5122.46Joel ROBERTSON   San Leandro, CA00:00.0 220316  766 Webcor/Alto Velo
6126.01Rodney SPRADLIN (5 - Cat2)   El Dorado Hills, CA00:00.0 122266  735 Team Bicycles Plus/Sierra Neva
7129.56Nabil SAMAAN (1 - Cat3)   Fair Oaks, CA00:00.0 177518  734 kinectics Cycling
8133.11Robert PASCO   Belmont, CA00:00.0 136970  747 SAFEWAY/GA PRC Group/Bicycles
9136.66Jonathan LAINE (6 - Cat2)   Truckee, CA00:00.0 256153  723 Team Bicycles Plus/Sierra Neva
10140.21Marty CUNNINGHAM (7 - Cat2)   Sacrament Ca00:00.0 8359  704 
11143.76Kerry STOCKWELL   Folsom, CA00:00.0 34228  736 Rio Strada
12147.31Ted TORIBIO (8 - Cat2)   Elk Grove00:00.0 88963  738 Folsom Bike/ Mercedes Benz
13150.86Max MACK (9 - Cat2)   Sacramento, CA00:00.0 45629  763 Health is Wealth
14154.41Karl WURZBACH (2 - Cat3)   Fairfield, CA00:00.0 260329  742 Davis Bike Club
15157.96Steve OFFERMAN (3 - Cat3)   Sacramento, CA00:00.0 81992  731 Team Bicycles Plus/Sierra Neva
16161.51Michael PUGH (10 - Cat2)   Davis, CA00:00.0 28820  754 Davis Bike Club Race Team
17165.06Bubba MELCHER (11 - Cat2)   Reno, NV00:00.0 23961  764 Team Specialized Racing Master
18168.61Kevin WILLITTS (4 - Cat3)   S Lake Tahoe, CA00:00.0 192774  740 Team Bicycles Plus/Sierra Neva
19172.16Morgan MAHANKE (5 - Cat3)   El Dorado Hills, CA00:00.0 226577  726 Team Bicycles Plus/Sierra Neva
20175.71Anders DELLIEN   Redwood City, CA00:00.0 355166  706 Cycles Fanatic
21179.26Greg CHAPLA (6 - Cat3)   Davis, CA00:00.0 282712  767 Davis Bike Club
22182.81Rick GRAVES (7 - Cat3)   San Rafael, CA00:00.0 100365  713 Taleo Racing
23186.36Darryl MOXLEY (8 - Cat3)   Orangevale, CA00:00.0 86490  744 Folsom Bike/Mercedes Benz
24189.91Paul MALENKE (9 - Cat3)   Roseville, CA00:00.0 82738  743 Team Bicycles Plus/Sierra Neva
25193.46Michael BOEHME (10 - Cat3)   Windsor, CA00:00.0 252576  755 Colavita Racing
26197.01Todd DAMBLY (11 - Cat3)   Folsom, CA00:00.0 212968  705 Bicycle Planet / AMLLP
27200.56Rod FERNANDEZ (12 - Cat3)   Dixon, CA00:00.0 265576  710 Davis Bike Club Race Team
28204.11Nicholas CARLEVATO (13 - Cat3)   Carson City, NV00:00.0 64351  702 LangeTwins Winery p/b Great Ba
29207.66Robert NAPIERALSKI (14 - Cat3)   Springville, CA00:00.0 271499  729 Sacramento Golden Wheelmen
30211.21Shin UMEDA (12 - Cat2)   Sunnyvale, CA00:00.0 46023  757 Webcor/Alto Velo
31214.76Scott HERRING (13 - Cat2)   Sausalito, CA00:00.0 236346  758 Evergreen Cycling
32218.31Douglas GONDA (15 - Cat3)   Truckee, CA00:00.0 13594  712 Team Bicycles Plus/Sierra Neva
33221.86Ken TODD (16 - Cat3)   Folsom, CA00:00.0 174881  761 Team Bicycles Plus/Sierra Neva
34225.41Jens HILLEN (14 - Cat2)   Orinda, CA00:00.0 226525  716 GNARLUBE/LANDSHARK Racing
35228.96R Todd MARSHALL (17 - Cat3)   Sacramento, CA00:00.0 43936  727 Davis Bike Club Race Team
36232.51Fred SCHNAARS (15 - Cat2)   Davis, CA00:00.0 65032  768 Davis Bike Club Race Team
37236.06John DIEMONT (18 - Cat3)   Richmond, CA00:00.0 71231  707 Webcor/Alto Velo
38239.61Spencer KENNER (19 - Cat3)   Davis, CA00:00.0 86651  720 Davis Bike Club Race Team
39243.16Jeffrey GRIFFO (20 - Cat3)   Homewood, CA00:00.0 180137  745 Truckee Bicycle Team
40246.71Lance NEWEY (21 - Cat3)   Fair Oaks, CA00:00.0 202161  730 Team Bicycles Plus/Sierra Neva
41250.26Paul DIAZ (22 - Cat3)   Cloverdale, CA00:00.0 271260  753 
42253.81John ELGART (16 - Cat2)   Sacramento, CA00:00.0 45071  708 Webcor/Alto Velo
43257.36Jay KINNEY (17 - Cat2)   Placerville, CA00:00.0 125352  722 hammer nutrition
44260.91Tony REID (23 - Cat3)   Sacramento, CA00:00.0 29458  748 SAFEWAY/GA PRC Group/Bicycles
45264.46Frank Lunceford Sr (24 - Cat3)   El Dorado Hills, CA00:00.0 273343  725 Folsom Bike/Mercedes Benz
46268.01Michael WOODBURN (25 - Cat3)   San Ramon, CA00:00.0 341576  741 Kovarus - Wells Fargo Racing T
47271.56Jack ARNEY (26 - Cat3)   Lincoln, CA00:00.0 301427  701 Folsom Bike/Mercedes Benz
48275.11David DEL ROSSO (18 - Cat2)   Dublin, CA00:00.0 187432  751 HDR Racing p/b Lombardi Sports
49278.66Jc CLIFFORD (27 - Cat3)   Roseville, CA00:00.0 232661  703 Team Bicycles Plus/Sierra Neva
50282.21Leon IANNARELLI (28 - Cat3)   Vacaville, CA00:00.0 49838  718 Fuji Oval Racing
51285.76Charles POCKELL-WILSON (19 - Cat2)   Martinez Ca00:00.0 52696  752 HDR Racing p/b Lombardi Sports
52289.31Boris ROZENBERG (29 - Cat3)   Daly City, CA00:00.0 190311  756 
53292.86John HANCOCK (20 - Cat2)   Sacramento, CA00:00.0 195844  715 Team Bicycles Plus/Sierra Neva
54296.41Myong-jae KIM (30 - Cat3)   San Rafael, CA00:00.0 199345  721 Health Is Wealth
55299.96Steven GRIFFITHS (31 - Cat3)   Granite Bay, CA00:00.0 14196  746 Team Bicycles Plus/Sierra Neva
56303.51Richard MAILE (32 - Cat3)   Sacramento, CA00:00.0 153697  749 
57307.06Jeff MITCHELL (33 - Cat3)   Folsom, CA00:00.0 101551  728 Team Bicycles Plus/Sierra Neva
58310.61John LICATESI (34 - Cat3)   Davis, CA00:00.0 183265  724 Davis Bike Club Race Team
59314.16Joseph FOSTER (21 - Cat2)   Alamo, CA00:00.0 286823  711 GNARLUBE / LANDSHARK racing
60317.71Steve SHOWLER   Carmichael, CA00:00.0 32554  762 Morgan Stanley /Specialized
61321.26Jess RAPHAEL (35 - Cat3)   Napa, CA00:00.0 221460  732 HEALTH IS WEALTH RACING TEAM
DNPKen TODD (Cat3)   Folsom, CA00:00.0 174881  737 Team Bicycles Plus/Sierra Neva
DNPSteve GRUBE (Cat3)   Sacramento, CA00:00.0 51158  714 Sacramento Golden Wheelmen
DNPRon READE (Cat2)   Berkeley, CA00:00.0 53377  733 SAFEWAY/GA PRC Group/Bicycles
DNPSteve WARD (Cat3)   Folsom, CA00:00.0 286653  739 Team Bicycles Plus/Sierra Neva
DNPBrian HITCHMAN (Cat2)   Folsom, CA00:00.0 48419  717 Team Bicycles Plus/Sierra Neva
DNPChris KEMP (Cat3)   West Sacramento, CA00:00.0 18867  719 Team City Sacramento
DNPDean ALLEGER (Cat3)   Sacramento, CA00:00.0 196784  700 Team Bicycles Plus/Sierra Neva
DNPJoseph OLIVERI (Cat2)   Grass Valley, CA00:00.0 26674  760 Team Bicycles Plus/Sierra Neva

Men - Pro/Cat 1/2 - Open

 Place Points NameCity, StateTime USAC #BibTeam
177.39Martin ACOSTA (1 - Cat1)   East Palo Alto, CA00:00.0 291277  338 McGuire Cycling Team
280.09Charles HUTCHESON (2 - Cat1)   Sacramento, CA00:00.0 54686  312 Marc Pro - Strava
382.79Judd VAN SICKLE (3 - Cat1)   Sacramento, CA00:00.0 127052  331 Folsom Bike/Mercedes Benz
485.49Chris STASTNY (4 - Cat1)   Vacaville, CA00:00.0 249743  325 California Giant/Specialized
588.19Benjamin SWEDBERG   Kent, WA00:00.0 200484  328 California Giant/Specialized
690.89Michael JACQUES (5 - Cat1)   Portola Valley, CA00:00.0 72022  313 Team Clif Bar cycling
793.59Rainier SCHAEFER (6 - Cat1)   Sanfrancisco, CA00:00.0 304249  353 Team Mike's Bikes
896.29Christopher BAKER (7 - Cat1)   Sacramento, CA00:00.0 47424  348 Morgan Stanley Cycling Team
998.99Alton DUNNIGAN (1 - Cat2)   Pleasant Hill, CA00:00.0 157044  304 Fremont Bank Cycling Team
10101.69Ryan MACDONALD (2 - Cat2)   Martinez, CA00:00.0 160274  346 Fremont Bank Cycling Team
11104.39Matthew OBREGON (8 - Cat1)   Folsom, CA00:00.0 232613  344 Team Bicycles Plus/Sierra Neva
12107.09Joshua CARLING (9 - Cat1)   Rancho Cordova, CA00:00.0 234584  303 Michael David Winery Cycling T
13UNKNOWN RIDER   00:00.0  377 -------
14UNKNOWN RIDER   00:00.0  335 -------
15115.19Jan WEISSENBERGER (10 - Cat1)   San Francisco, CA00:00.0 186678  332 GNARLUBE/LANDSHARK racing
16117.89Mackenzie KELLY (3 - Cat2)   Santa Cruz, CA00:00.0 286297  315 Ritte Elite U23 Development Te
17120.59Nicholas OLIVER (4 - Cat2)   El Dorado Hills, CA00:00.0 271541  334 Fremont Bank Cycling Team
18123.29David KAUSE (5 - Cat2)   Sacramento, CA00:00.0 175157  314 Quick Step North America
19125.99Anthony FERRETTI (6 - Cat2)   Oroville, CA00:00.0 283185  306 Chico Corsa Cycling Club
20128.69David ALBRECHT (11 - Cat1)   Chico, CA00:00.0 47091  301 LangeTwins Winery p/b Great Ba
21131.39Mary Elizabeth MAROON   Sacramento, CA00:00.0 219555  341 FCS|ROUSE: p/b Mr. Restore
22134.09Kenny STRICKLAND (7 - Cat2)   San Ramon, CA00:00.0 270965  327 Metromint Cycling
23136.79Peter NICHOLSON (8 - Cat2)   Mill Valley00:00.0 219558  319 TRUE Communications
24139.49Richard SNODSMITH (9 - Cat2)   San Francisco, CA00:00.0 51411  342 Fusion Sport USA
25142.19Steve THOMSEN (10 - Cat2)   Reno, NV00:00.0 245436  330 LangeTwins Winery p/b Great Ba
26144.89Jeff WATSON (11 - Cat2)   Elk Grove, CA00:00.0 293136  347 Team Bicycles Plus/Sierra Neva
27147.59Andre TENTHOREY (12 - Cat2)   Granite Bay, CA00:00.0 76561  351 Sacramento Golden Wheelmen
28150.29Jeffrey GALLAND (13 - Cat2)   Paradise, CA00:00.0 127804  308 Lange Twins Winery p/b Great B
29152.99Donald HAHN (14 - Cat2)   Reno, NV00:00.0 280149  310 Marc Pro-Strava
30155.69Cody TAPLEY (15 - Cat2)   Citrus Heights, CA00:00.0 234610  329 Whole Athlete-Specialized
31158.39Michael PAINTER (16 - Cat2)   Chico Ca00:00.0 289184  320 Chico Corsa Cycling Club
32161.09Patrick BRIGGS (12 - Cat1)   Oakland, CA00:00.0 4838  345 Sierra Pacific Racing p/b Dayk
33163.79Jason SNOVEL (17 - Cat2)   Sacramento, CA00:00.0 268577  324 Folsom Bike/Mercedes Benz
34166.49David MCCOOK (13 - Cat1)   Tampa Fl00:00.0 66627  339 McGuire Cycling Team
35169.19Rodney SPRADLIN (18 - Cat2)   El Dorado Hills, CA00:00.0 122266  350 Team Bicycles Plus/Sierra Neva
36171.89Jason BROWN (19 - Cat2)   Lodi, CA00:00.0 53115  349 LangeTwins Winery p/b Great Ba
37174.59Josh BULLOCK (20 - Cat2)   Sacramento, CA00:00.0 153414  302 Chico Corsa Cycling Club
38177.29Dylan SEGUIN (21 - Cat2)   Boise, ID00:00.0 44296  323 TEAM CLIF BAR Cycling
39179.99Michael EGAN (22 - Cat2)   West Sacrametno, CA00:00.0 124893  305 Sacramento Golden Wheelmen
40182.69Justin ROSSI (14 - Cat1)   Reno, NV00:00.0 298550  322 Marc Pro - Strava
41185.39Joe IANNARELLI (15 - Cat1)   Vacaville, CA00:00.0 195783  352 Marc Pro - Strava
42188.09Trevor WHITE (23 - Cat2)   Oakland, CA00:00.0 503  333 SquadraSF
43190.79Matthew REAM (24 - Cat2)   Verdi, NV00:00.0 211441  336 LangeTwins Winery p/b Great Ba
44193.49Michael HERNANDEZ (16 - Cat1)   Oakland, CA00:00.0 136641  311 Lange Twins Winery p/b Great B
45196.19Peter KNUDSEN (17 - Cat1)   Sacramento, CA00:00.0 97881  316 Team Clover
46198.89Ron READE (25 - Cat2)   Berkeley, CA00:00.0 53377  321 SAFEWAY/GA PRC Group/Bicycles
DNPJesse MOORE (Cat1)   Sacramento, CA00:00.0 204739  318 California Giant/Specialized
DNPIvy AUDRAIN (Cat1)   Seattle, WA00:00.0 287816  354 Stranamanti Cycling
DNPDiego GARAVITO (Cat1)   Charlotte, NC00:00.0 172738  337 
DNPHeather LIPANA (Cat2)   Folsom, CA00:00.0 333090  343 Stevens Bikes p/b Pactimo
DNPRichard STEELE (Cat2)   El Dorado Hills, CA00:00.0 58347  326 Sacramento Golden Wheelmen
DNPScotti FONSECA (Cat2)   Fair Oaks, CA00:00.0 204715  307 Zenn Cycling Team
DNPTom GODFREY (Cat2)   Arlington, VA00:00.0 13480  309 NCVC/UnitedHealthcare
DNPRand MILLER (Cat1)   San Francisco, CA00:00.0 182990  317 California Giant/Specialized
DNPMary Ellen ASH   Menlo Park, CA00:00.0 254874  340 Stevens Bikes p/b Pactimo
DNPBen ALBRACHT (Cat2)   Monterey, CA00:00.0 210637  300 GNARLUBE/LANDSHARK racing

Men - Cat 3 - Open

 Place Points NameCity, StateTime USAC #BibTeam
1138.49Garrett HANKINS   Carmichael, CA00:00.0 298571  215 Team Bicycles Plus/Sierra Neva
2141.56Ryan JOHNSON   San Francisco, CA00:00.0 288483  248 Team Mike's Bikes
3144.63Francisco PADILLA   Vallejo, CA00:00.0 160213  240 Taleo Racing
4147.70Kesler JARED   Auburn, CA00:00.0 277317  254 
5150.77Jeff DILLON   Folsom, CA00:00.0 9524  210 LeadOut Racing
6153.84Ryan ODELL   Sacramento, CA00:00.0 288200  247 Davis Bike Club Race Team
7156.91Henry NELSON   Oakland, CA00:00.0 289117  246 Tieni Duro Junior Cycling Team
8159.98Corey DUREN   Chico, CA00:00.0 320490  212 Chico Corsa Cycling Club
9163.05Gordon OLSON   Reno, NV00:00.0 105151  219 Velo Reno p/b Tamarack Junctio
10166.12Nathan SHAW   Castro Valley, CA00:00.0 196249  250 Fusion Sport USA
11169.19Nick MCGOWAN   Rohnert Park, CA00:00.0 303653  218 Red Peloton
12172.26Adam THATCHER   Chico, CA00:00.0 311983  224 Chico Corsa Cycling Club
13175.33Michael CLAUDIO   West Sacramento, CA00:00.0 248052  207 Davis Bike Club Race Team
14178.40Patrick CALLAN   Fair Oaks, CA00:00.0 323184  205 Team Bicycles Plus/Sierra Neva
15181.47Reese LEVINE   Orinda, CA00:00.0 263998  217 Tieni Duro
16184.54Ellis ANDERSON   Moraga, CA00:00.0 274504  201 Tieni Duro
17187.61Oliver WEISS   Roseville, CA00:00.0 79603  229 Rio Strada Racing
18190.68Jeffrey PALILEO   American Canyon, CA00:00.0 224717  249 Central Arkansas Velo/CARVE
19193.75Stephen SYNHORST   Sacramento, CA00:00.0 234097  244 SGW
20196.82Paul TINDAL   South Lake Tahoe, CA00:00.0 153758  252 LangeTwins Winery p/b Great Ba
21199.89Andrew BERG   Sacramento, CA00:00.0 351724  202 Sacramento Golden Wheelmen
22202.96Ryan OAKES   Chico, CA00:00.0 258824  251 Chico Corsa Cycling Club
23206.03Nabil SAMAAN   Fair Oaks, CA00:00.0 177518  234 Kinetic Cycles/GBI
24209.10Tyler JANKE   Folsom, CA00:00.0 57315  245 Rio Strada Racing
25212.17Ronald JOHNSON   Sacramento, CA00:00.0 41718  238 Rio Strada Racing
26215.24Yutch Liam COWHIE   Fair Oaks, CA00:00.0 261718  209 Team Bicycles Plus/Sierra Neva
27218.31Ken TODD   Folsom, CA00:00.0 174881  225 Team Bicycles Plus/Sierra Neva
28221.38Chris PAROD   Mather, CA00:00.0 270992  221 Team Bicycles Plus/Sierra Neva
29224.45Ben PALMER   Folsom, CA00:00.0 328784  220 Davis BIke Club Race Team
30227.52Matt TUFTS   Placerville, CA00:00.0 240212  227 leadoutracing.com
31230.59Brendan LARKIN   The Woodlands , TX00:00.0 302215  243 
32233.66Rich TABUSO   Roseville, CA00:00.0 274439  237 Team Bicycles Plus/Sierra Neva
33236.73Casey FALLON   Sacramento, CA00:00.0 331532  213 Rio Strada Racing
34239.80Rocky FLETCHER   Sacramento , CA00:00.0 324460  242 Rio Strada
35242.87Ian SWINSON   Oakland, CA00:00.0 255539  223 Squadra SF
36245.94Max FOORMAN   Folsom, CA00:00.0 152445  214 Team Bicycles Plus/Sierra Neva
37249.01Kevin TUFTS   Cameron Park, CA00:00.0 243434  226 Leadoutracing.com
38252.08Timothy ZSOKA   Folsom, CA00:00.0 239889  230 Team Bicycles Plus/Sierra Neva
39255.15Steven GRIFFITHS   Granite Bay, CA00:00.0 14196  235 Team Bicycles Plus/Sierra Neva
40258.22David HASLEMANN   Folsom, CA00:00.0 277664  236 Rio Strada Racing
41261.29Sammy TRUJILLO   Rancho Cordova, CA00:00.0 286935  253 Rio Strada Racing
42264.36Eric` INGRAM   Reno, NV00:00.0 68858  216 Velo Reno
43267.43John NOVIKOFF   Rocklin, CA00:00.0 239990  239 Leadoutracing.com (CA)
44270.50Kevin WILLITTS   S Lake Tahoe, CA00:00.0 192774  233 Team Bicycles Plus/Sierra Neva
45273.57Cody KAISER   El Dorado Hills, CA00:00.0 202564  241 California Giant Berry Farms/S
46276.64Eric CINNAMON   Rohnert Park, CA00:00.0 273013  206 Red Peloton
DNPUNKNOWN RIDER   00:00.0  ??? -------
DNPGivargis BETOSHANA   Ripon, CA00:00.0 55276  203 FSB
DNPDean ALLEGER   Sacramento, CA00:00.0 196784  200 Team Bicycles Plus/Sierra Neva
DNPShane CALKINS   Gold River, CA00:00.0 254786  232 Team Bicycles Plus/Sierra Neva
DNPJeff MITCHELL   Folsom, CA00:00.0 101551  231 Team Bicycles Plus/Sierra Neva
DNPStephen VOGEL   Winston Salem, NC00:00.0 324128  228 Wake Forest University Cycling
DNPChris PAYNE   Reno, NV00:00.0 27493  222 Velo Reno P/B Tamarack Junctio
DNPJohn COLLINS   Folsom, CA00:00.0 231774  208 Team Revolutions
DNPBen DODGE   San Jose, CA00:00.0 178595  211 Third Pillar
DNPMichael BOEHME   Windsor, CA00:00.0 252576  204 Colavita Racing-Norcal

Men - Cat 4 - Open

 Place Points NameCity, StateTime USAC #BibTeam
1220.56Tom EDWARDS   Sebastopol, CA00:00.0 366734  411 
2225.20Vince HOFFART   Rocklin, CA00:00.0 327712  427 Victory Velo Racing
3229.84Chris GAITOS   Fremont00:00.0 365286  420 team fremont/ ffbc powered by
4234.48Aaron MARCHAND   Sacramento, CA00:00.0 289169  431 Riivo/ SCC
5239.12Fernando PADILLA   Vallejo00:00.0 341214  441 tieni duro
6243.76Darron STURGEON   Reno, NV00:00.0 286787  450 Taleo Racing
7248.40Greg FALES   Orangevale, CA00:00.0 275788  414 Team Bicycles Plus/Sierra Neva
8253.04Brandon ALONZO   Sacramento, CA00:00.0 365954  400 
9257.68Adam ANDELIN   Elk Grove, CA00:00.0 128711  402 Team Bicycles Plus/Sierra Neva
10262.32Jake HENSLEY   El Dorado Hills Ca00:00.0 295422  425 Rio Strada Racing
11266.96Timothy MUALCHIN   Vacaville, CA00:00.0 197634  436 
12271.60Bradley SMITH   Roseville, CA00:00.0 343176  468 Folsom Bike/Mercedes Benz
13276.24Paul LUDDEN   Sacramento, CA00:00.0 352040  430 NorCal Hub Racing
14280.88Dan LEE   Petaluma, CA00:00.0 113898  429 Windsor Bicycle Center
15285.52Curt MILLS   Gold River, CA00:00.0 299412  463 Team Bicycles Plus/Sierra Neva
16290.16Mario FIGUEROA   Oakland, CA00:00.0 344130  418 Berkeley Bicycle Club
17294.80Jesse BERKOWITZ   Sudbury, MA00:00.0 347430  403 Berkeley Bicycle Club
18299.44Nicholas HACK   Berkeley, CA00:00.0 281233  423 Berkeley Bicycle Club (BBC)
19304.08Charles HIMES   Santa Rosa, CA00:00.0 16249  426 Windsor Bicycle Center
20308.72Robert TERRA   Lodi, CA00:00.0 269793  451 Team Bicycles Plus/Sierra Neva
21313.36Daniel WILLIAMS   Fairfield, CA00:00.0 333518  457 Fuji Oval
22318.00Craig MARTIN   Auburn, CA00:00.0 304421  460 Rio Strada Racing
23322.64Clint WILLIAMS   Rio Linda, CA00:00.0 331630  456 Chocolate Fish Coffee Roasters
24327.28Michael FERRELL   Provo, UT00:00.0 254614  417 Folsom Bike
25331.92Jarrod WYRICK   Granite Bay, CA00:00.0 109262  458 Folsom Bike
26336.56Marc MARINO   San Francisco, CA00:00.0 315958  432 Chica Sexy
27341.20Ryan ALVEY   Sacramento, CA00:00.0 274522  401 Davis Bike Club Race Team
28345.84Daniel POLLARD   Roseville, CA00:00.0 269166  443 Team Mad Cat
29350.48Chris MORRIS   El Dorado Hills, CA00:00.0 316874  461 Folsom Bike/Mercedes Benz
30355.12Lance MCPEAK   Walla Walla, WA00:00.0 335916  433 Victory Velo Racing
31359.76Brian PANTIGA   Folsom, CA00:00.0 61633  442 Bicycle Planet
32364.40Kevin TRAN   Garden Grove, CA00:00.0 369186  469 Veloviet
33369.04Jeff DALE   Cameron Park, CA00:00.0 333472  408 Team Revolutions
34373.68Don EIPPER   El Dorado Hills, CA00:00.0 248941  412 Team Revolutions
35378.32Ron STOFAN   Folsom00:00.0 368443  449 Team Bicycles Plus/Sierra Neva
36382.96Jason HARDI   Citrus Heights, CA00:00.0 287921  424 Mercedes Benz/Folsom Bike
37387.60Jeffrey WEAVER   Sacramento, CA00:00.0 290926  453 Davis Bike Club Race Team
38392.24Eric BRICKLER   Folsom, CA00:00.0 284883  404 Leadoutracing.com
39396.88Jim RADEMANN   Folsom, CA00:00.0 331800  444 Revs
40401.52Zach EURICH   Fresno, CA00:00.0 270781  413 VOS Racing
41406.16Eric CLAUSS   San Francisco, CA00:00.0 198040  406 SquadraSF
42410.80Derek NOVAES   West Sacramento, CA00:00.0 274484  438 Rio Strada Racing
43415.44Nick SHOCKEY   Woodland, CA00:00.0 319784  447 Team City
44420.08Schuyler WILCOX   Sacramento, CA00:00.0 335466  455 Rio Strada Racing
45424.72Steve ROTHENBERG   Fair Oaks, CA00:00.0 319770  446 Team CCP
46429.36Ron FAULK   Placerville, CA00:00.0 254588  415 Body Concepts
47434.00James WHITNEY   Lincoln, CA00:00.0 51073  454 Fusion Sport
48438.64Mark STERN   Folsom, CA00:00.0 272223  448 Rio Strada Racing
49443.28Matt POLAND   El Dorado Hills, CA00:00.0 296924  474 Team Revolutions
50447.92Kevin DENISON   El Dorado Hills, CA00:00.0 303642  409 Team Mad Cat
51452.56Sean ODOM   Carmichael, CA00:00.0 223061  440 East Sac Bikes
52457.20Chris MCCRARY   Danville, CA00:00.0 289122  473 Forward Motion Race Club
53461.84Max FOGARTY   Berkeley, CA00:00.0 339432  419 Tieni Duro
54466.48Richard NAGEL   Vacaville, CA00:00.0 345938  466 
55471.12Christopher DUGAN   Reno, NV00:00.0 303544  465 Velo Reno P/B Tamarack Junctio
56475.76Frank YANG   San Francisco00:00.0 288185  459 Berkeley Bicycle Club (BBC)
57480.40Jeremy DOSSETTER   San Francisco, CA00:00.0 340854  410 
58485.04Mike MUNOZ   Cameronpark, CA00:00.0 307140  437 Team Revolutions
59489.68Chad RICHARDS   Antelope, CA00:00.0 305850  445 Team Bicycles Plus/Sierra Neva
60494.32Steven TORTORELLI   San Francisco00:00.0 332984  462 Chica Sexy
61498.96Camilo VILASECA   Berkeley, CA00:00.0 335990  464 Tieni Duro Junior Cycling Team
62503.60Stephen FEDERICO   Napa, CA00:00.0 11364  416 Team Roaring Mouse
63508.24Keegan BRUEMMER   Reno, NV00:00.0 239684  405 LangeTwins Winery p/b Great Ba
64512.88Lonny MORGAN   Carmichael, CA00:00.0 303146  435 Team Revolutions
65517.52Doug MIGLAW   Fair Oaks, CA00:00.0 257772  434 Leadoutracing.com
66522.16Robert GOSS   Folsom, CA00:00.0 289041  467 Team Bicycles Plus/Sierra Neva
67526.80Sean GILSON   Sacramento, CA00:00.0 321722  422 Team Synergized
DNPUNKNOWN RIDER   00:00.0  ??? -------
DNPPatrick O'ROURKE   Fresno, CA00:00.0 132197  439 Steven's Bicycle Racing Team
DNPWoody WAITE   Sacramento, CA00:00.0 316350  452 
DNPHugh JANNEY   Sacramento, CA00:00.0 143225  428 Rio Strada Racing
DNPIan COBERLY   Lodi, CA00:00.0 322092  407 Micheal David Winery
DNPVitaly GASHPAR   San Francisco, CA00:00.0 273905  421 SquadraSF

Men - Cat 5 - Open

 Place Points NameCity, StateTime USAC #BibTeam
1309.18Lynden MCLAUGHLAN   Piedmont, CA00:00.0 364975  529 Major Motion
2315.42Tim BAIR   Roseville, CA00:00.0 257805  501 Norcal Hub Racing
3321.66Robert LANDER   Sacramento, CA00:00.0 356530  525 City Bicycle Works
4327.90Jonathan WARNER   Carmichael, CA00:00.0 352870  545 Team Bicycles Plus/Sierra Neva
5334.14Cory HULA   Sacramento, CA00:00.0 334330  519 Team City Sacramento
6340.38Trevor JOHNSTON   Citrusheights, CA00:00.0 317078  521 Rio Strada Racing
7Andy Spurgeon   00:00.0  515 The Hur
8352.86Eugene STEVENSON   Sacramento, CA00:00.0 288526  541 Team City Sacramento
9359.10Darren ROJO   Folsom, CA00:00.0 366161  539 Team Bicycles Plus/Sierra Neva
10365.34Wyatt MORIN   Roseville, CA00:00.0 266930  531 Victory Velo/Placer Foothill
11371.58Gabriel GANDARA   Sacramento, CA00:00.0 339042  512 California State University-Sacramento
12377.82Alex JITLOFF   Reno, NV00:00.0 78297  520 Paco's/Truckee Bike Club
13384.06Alex WILD   San Jose, CA00:00.0 285975  549 
14390.30Justin TRAUD   Gold River, CA00:00.0 368059  544 Rio Strada Racing
15396.54Aaron SIEMSEN   Folsom00:00.0 377062  540 
16402.78Rich HUFFORD   Granite Bay, CA00:00.0 365212  518 Victory Velo Racing
17409.02Tyler PLACE   El Dorado Hills, CA00:00.0 365099  535 Team City Sacramento
18415.26John MARENGO   Fair Oaks, CA00:00.0 371699  528 Team City
19421.50Arthur ROBERTS   San Francisco, CA00:00.0 367063  538 Tri Valley Velo
20427.74Zachary DOMAGALA   Roseville, CA00:00.0 378257  508 NorCal Hub Racing
21433.98John FULTON   Pleasant Hill, CA00:00.0 368912  511 forward motion race club
22440.22Mike GIUDICELLI   Auburn, CA00:00.0 330124  514 NorCal Hub Racing
23446.46Brent CHRISTIAN   Cedar Park, TX00:00.0 236257  506 Folsom Bike/Mercedes-Benz
24452.70Nick ROBERTI   Cameron Park 00:00.0 366620  537 
25458.94Travis TANASSE   Folsom, CA00:00.0 378079  542 
26465.18Tony BOODY   El Dorado Hills, CA00:00.0 326730  502 Team Revolutions
27471.42Matthew AXFORD   Carmichael, CA00:00.0 247223  500 Rio Strada Racing
28477.66Travis RETZER   Castro Valley, CA00:00.0 264141  536 Eden Bicycles Racing Club
29483.90Nate HOE   Seattle, WA00:00.0 372578  517 Team City Sacramento
30490.14Thomas BRENNAN   Sacramento, CA00:00.0 377489  503 
31496.38John MOBLEY   Grass Valley, CA00:00.0 378965  530 
32502.62Joshua TIPTON   Sacramento00:00.0 374810  546 Team Synergized
33508.86Kevin ORAM   Alamo00:00.0 380144  533 Davis Bike Club Race Team
34515.10Tony DZOAN   Union City, CA00:00.0 334594  509 Team Fremont / FFBC powered by
35521.34Manny CANSON   Sparks, NV00:00.0 334646  505 Audi
36527.58Michael BURCKHARD   Fair Oaks, CA00:00.0 366282  504 Team Synergized
37533.82Pete HAGENS   Shingle Springs, CA00:00.0 353578  516 Bicycle Planet
38540.06Aaron COLLDEWEIH   Folsom, CA00:00.0 365990  507 Davis Bike Club
39546.30Roy TAYLOR   Castro Valley, CA00:00.0 304312  543 Team Fremont / FFBC pb Chipotl
40552.54Oswaldo PADILLA   Benicia, CA00:00.0 368409  534 Taleo Racing
41558.78Nathan BONILLA   Sacramento, CA00:00.0 368584  548 Team Synergized
42565.02Ken OBATA   Danville, CA00:00.0 365490  532 Team Fremont / FFBC by Chipotl
43571.26Matthew GARCIA   Albuquerque, NM00:00.0 279830  513 
44577.50Andrew KNICKERBOCKER   Lafayette, CA00:00.0 374901  547 Forward Motion Race Club
45583.74John FARR   Granite Bay Ca00:00.0 377090  510 
46Taylor JOY   00:00.0  522 
DNPDanielle Haulman   Davis, CA00:00.0 181367  837 Tibco
DNPAmanda SEIGLE   Citrus Heights, CA00:00.0 203755  835 Metromint Cycling
DNPScott KINGSTON   Sacramento, CA00:00.0 364783  524 Rio Strada Racing
DNPChristian KERSHNER   Sacramento00:00.0 366927  523 
DNPJohn LOCKWOOD   Sacramento, CA00:00.0 332208  526 Rio Strata

Men - Cat 5 - Master - 35-99

 Place Points NameCity, StateTime USAC #BibTeam
1312.41Lynden MCLAUGHLAN   Piedmont, CA00:00.0 364975  567 Major Motion
2321.08Dean KLOTZ   Cameron Park, CA00:00.0 139360  585 Leadoutracing.com (CA)
3329.75Rich HUFFORD   Granite Bay, CA00:00.0 365212  562 Victory Velo Racing
4338.42Jon HYATT   Granite Bay, CA00:00.0 190437  563 Team Bicycles Plus/Sierra Neva
5347.09David ALMQUIST   Roseville, CA00:00.0 365531  586 Team City Sacramento
6355.76Donald CASE   Orinda, CA00:00.0 379134  555 Taleo Racing Team
7364.43Alex JITLOFF   Reno, NV00:00.0 78297  564 Paco's/Truckee Bike Club
8373.10John MARENGO   Fair Oaks, CA00:00.0 371699  566 Team City
9381.77Omir TORRES   El Dorado Hills, CA00:00.0 333158  581 Team Revolutions
10390.44Darren ROJO   Folsom, CA00:00.0 366161  575 Team Bicycles Plus/Sierra Neva
11399.11Patrick MURPHY   Folsom, CA00:00.0 301904  568 Team Mad Cat
12407.78Martin SZWARC   Rancho Cordova, CA00:00.0 380700  577 Stuzio.com
13416.45Ken OBATA   Danville, CA00:00.0 365490  569 Team Fremont / FFBC by Chipotl
14425.12Michael TERRA   Sacramento, CA00:00.0 365904  579 Team Revolutions
15433.79Tony DZOAN   Union City, CA00:00.0 334594  557 Team Fremont / FFBC powered by
16442.46Kevin HARRIS   El Dorado Hills, CA00:00.0 365218  561 Folsom Bike/Mercedes Benz
17451.13Tony BOODY   El Dorado Hills, CA00:00.0 326730  552 Team Revolutions
18459.80Greg PRICE   West Sacramento, CA00:00.0 364779  573 Rio Strada Racing
19468.47John FARR   Granite Bay Ca00:00.0 377090  558 
20477.14Roy TAYLOR   Castro Valley, CA00:00.0 304312  578 Team Fremont / FFBC pb Chipotl
21485.81Manny CANSON   Sparks, NV00:00.0 334646  554 Audi
22494.48Michael PINHEIRO   Modesto, CA00:00.0 304484  572 Funsport Bikes
23503.15Nick ROBERTI   Cameron Park 00:00.0 366620  574 
24511.82Gary BIEHL   Sacramento, CA00:00.0 86778  551 
25David BRANDENBURRY   00:00.0  584 
26UNKNOWN RIDER   00:00.0  587 -------
27537.83Michael PALACIOS   Fair Oaks , CA00:00.0 374599  571 
28546.50Scott GELBKE   West Sacramento, CA00:00.0 359225  559 Rio Strada Racing
29555.17Brent CHRISTIAN   Cedar Park, TX00:00.0 236257  556 Folsom Bike/Mercedes-Benz
30563.84Mark POOLE   Granitebay, CA00:00.0 284673  582 Bicycle Planet
31572.51Bill SCHROEDER   Folsom, CA00:00.0 305262  576 Team Revolutions
32581.18Stanton LEE   Sacramento, CA00:00.0 334020  565 Sacramento Golden Wheelmen
33589.85Walter GORBA   Applegate, CA00:00.0 333036  560 Victory Velo Racing
DNPDionisio PADILLA   Vallejo, CA00:00.0 360204  570 
DNPRobb THOMPSON   Folsom00:00.0 364927  580 Norcal hub racing
DNPDoug BURCKHARD   Fair Oaksfair Oaks, CA00:00.0 375294  553 Synergized
DNPDanny NGUYEN   Shingle Springs, CA00:00.0 367571  583 
DNPTim BAIR   Roseville, CA00:00.0 257805  550 Norcal Hub Racing

Men - Junior - 18-Oct

 Place Points NameCity, StateTime USAC #BibTeam
1297.73Robert TERRA   Lodi, CA00:00.0 269793  653 Team Bicycles Plus/Sierra Neva
2318.61Troy STRICKLAND   San Ramon00:00.0 279824  652 SJBC
3339.49Fernando PADILLA   Vallejo00:00.0 341214  651 tieni duro
4360.37Samuel HILL   Woodland, CA00:00.0 318306  658 Davis Bike Club
5381.25Grover ROZEK   Folsom00:00.0 331894  664 Team Bicycles Plus/Sierra Neva
6402.13Matthew DAILEY   Davis, CA00:00.0 330968  659 Davis Bike Club Race Team
7423.01Kennedy HILL   Woodland, CA00:00.0 352008  657 Davis Bike Club
8443.89Ryan JOY   Granite Bay, CA00:00.0 335440  656 Team Bicycles Plus/Sierra Neva
9464.77Peter HILLEN   Orinda, CA00:00.0 333102  655 
10485.65Aley ABDELGHAFFAR   Davis, CA00:00.0 364871  660 Davis Bike Club Race Team
11UNKNOWN RIDER   00:00.0  654 -------
12527.41Jack HARGROVE   West Sacramento00:00.0 379870  662 Davis Bike Club Race Team
13548.29Helen LASSITER   Davis00:00.0 366140  661 Davis Bike Club Race Team
14569.17Nathan FIORI   Folsom, CA00:00.0 337854  663 Davis Bike club Race Team
15590.05Devin ANDERSON   Tacoma, WA00:00.0 173744  665 Revel Consulting/Rad Racing NW
DNPKaran DESAI   San Francisco, CA00:00.0 362149  650 Team Swift

Women - Cat1/2/3 - Open

 Place Points NameCity, StateTime USAC #BibTeam
184.86Sofia MARIN (1 - Cat2)   San Francisco, CA00:00.0 318908  826 Pacific Crush Racing
293.30Heather LIPANA (2 - Cat2)   Folsom, CA00:00.0 333090  833 Stevens Bikes p/b Pactimo
3101.74Mary-ellen ASH   Menlo Park, CA00:00.0 254874  828 Steven's Bikes p/b Pactimo
4110.18Danielle Haulman   Davis, CA00:00.0 181367  837 Tibco
5118.62Carol IRVING   Woodland, CA00:00.0 17419  809 Touchstone Climbing
6127.06Heather ROSS   Felton, CA00:00.0 239612  817 Team TIBCO II
7135.50Ivy AUDRAIN   Seattle, WA00:00.0 287816  802 Keller Rohrback
8143.94Jane ROBERTSON   Davis, CA00:00.0 218607  834 Metromint Cycling
9152.38Vanessa DRIGO   Charlotte, NC00:00.0 257356  806 Vanderkitten-Focus
10160.82Charlotte HART   Merced, CA00:00.0 237583  832 Cycles FANATIC Factory Racing
11169.26Colene CROWLEY (1 - Cat3)   Carmichael, CA00:00.0 129693  836 Rio Strada Racing
12177.70Ruste SASSER (3 - Cat2)   Fresno, CA00:00.0 304436  818 Carbon Lite Racing
13186.14Rita SZETO (2 - Cat3)   Crockett, CA00:00.0 195322  823 Touchstone Climbing
14194.58Katie STONEBRAKER (3 - Cat3)   Sacramento, CA00:00.0 226927  821 Rio Strada Racing
15203.02Kelly BARTHOLOMEW (4 - Cat2)   San Rafael, CA00:00.0 48431  830 San Jose Bicycle Club
16211.46Lesley JENSEN (4 - Cat3)   Benicia, CA00:00.0 17778  827 One Team Racing
17219.90Heather NIELSON (5 - Cat2)   Seattle, WA00:00.0 237346  815 Touchstone Climbing
18228.34Adrienne BELLIVEAU (6 - Cat2)   East Palo Alto, CA00:00.0 303420  804 Team TIBCO II
19236.78Shannon MITCHELL (5 - Cat3)   Santa Rosa, CA00:00.0 307520  831 Red Peloton
20245.22Shannon BHATIA (7 - Cat2)   San Jose, CA00:00.0 306273  829 Team TIBCO II
21253.66Beverley MCINNES (8 - Cat2)   Carmichael, CA00:00.0 60785  814 Rio Strada Racing
22262.10Heidi LITTENBERG (6 - Cat3)   Reno, NV00:00.0 286191  812 Reno Wheelmen
23270.54Erica Greif (7 - Cat3)   Reno, NV00:00.0 367331  801 reno Wheelmen
24278.98Page ROBERTSON (8 - Cat3)   Oakland, CA00:00.0 291028  816 Team TIBCO II
25287.42Linda ELGART (9 - Cat2)   Sacramento, CA00:00.0 45299  807 Webcor/Alto Velo
26295.86Jerika HUTCHINSON (10 - Cat2)   Mount Shasta, CA00:00.0 219674  808 Fremont Cycling Team
27304.30Maryann SCHRUPP (9 - Cat3)   Reno, NV00:00.0 288460  819 Team TIBCO II
28312.74Aliya TRAFICANTE (10 - Cat3)   Chico, CA00:00.0 310825  824 
29321.18Martha BELLISLE (11 - Cat3)   Truckee, CA00:00.0 293090  803 Red Peloton
30329.62Joan CASE (12 - Cat3)   Pleasant Hill, CA00:00.0 242557  805 Taleo Racing
31338.06Amanda SEIGLE (11 - Cat2)   Citrus Heights, CA00:00.0 203755  835 Metromint Cycling
32346.50Marley SMITH   Roseville, CA00:00.0 276961  820 Stevens PB Pactimo
33354.94Heather VAN SICKLE   Sacramento, CA00:00.0 289752  825 Stevens Bikes p/b Pactimo
DNPUNKNOWN RIDER   00:00.0  ??? -------
DNPKate LIGLER   Sausalito, CA00:00.0 206217  811 RED Racing
DNPJanelle KELLMAN (Cat2)   Sausalito, CA00:00.0 217916  810 Red Racing
DNPAnn STUART (Cat3)   Sacramento, CA00:00.0 250365  822 Touchstone Climbing

Women - Cat 4 - Open

 Place Points NameCity, StateTime USAC #BibTeam
0218.38June NGUYEN   Santa Rosa00:00.0 277526  611 Metromint Cycling
1239.57Danielle SPIRES   Oakland, CA00:00.0 303311  618 Pacific Crush
2260.76Kelli BADILLO   Santa Rosa, CA00:00.0 332182  600 Red Peloton
3281.95Vanessa CAIRNS   San Jose, CA00:00.0 282467  604 Team TIBCO II
4303.14Karen HUTCHINS   Folsom, CA00:00.0 308852  610 Leadoutracing.com
5324.33Jennifer DOUGLAS   Granite Bay, CA00:00.0 359132  608 Rio Strada Racing
6345.52Stephanie BUCKNER   West Sacramento, CA00:00.0 337666  603 Red Peloton
7366.71Kathleen CALKINS   Rancho Cordova, CA00:00.0 380616  605 Team bicycles plus/Sierra neva
8387.90Asa SALAS   Folsom, CA00:00.0 115370  617 Leadoutracing.com
9409.09Kim BOWERS ALBANO   Pleasanton, CA00:00.0 369461  602 Tri Valley Velo
10430.28Carla COSENTINO   Los Gatos, CA00:00.0 255734  606 Red Peloton
11451.47Julie PFEIFLE   Pleasanton, CA00:00.0 368170  613 Tri Valley Velo
12472.66Stella ROSEFIELD   Pleasanton, CA00:00.0 304152  616 Tri Valley Velo
13493.85Jennifer BAKER   Sacramento, CA00:00.0 337670  601 Rio Strada Racing
14515.04Amanda REWCASTLE   Danville, CA00:00.0 260713  615 Tri Valley Velo
15536.23Laurie PETERSON   Windsor, CA00:00.0 297162  612 Red Peloton
16557.42Angie PLATIS   West Sacramento, CA00:00.0 364812  614 Rio Strada Racing
DNPMadeline FINCH   Sacramento, CA00:00.0 127715  609 Rio Strada Racing
DNPGale DE ROSA   Gold River, CA00:00.0 332412  607 Metromint Cycling

Report missing or incorrect license numbers

Volkswagen
ShimanoSierra NevadaSpyUSACDFCUOREBonk Breaker
UCI USA Cycling is the official governing body for all disciplines of competitive cycling in the United States. The 501c3, membership-based organization aims both to achieve sustained success in international cycling competition and to grow competitive cycling in America while delivering an exceptional customer experience.
View Children's Online Privacy Protection Policy
US Olympic Committee